FW0232 Weather Reports


Display with metric or nautical units.
time (UTC)temp
F
wind
direction
speed
MPH
gust
MPH
rain 1hr
in
rain 24hr
in
rain mn
in
humidity
%
barometer
mb
20260503190903 83 75 2.0 7.0 0.00 0.00 0.00 49 1007.9
20260503190213 82 7 1.0 6.0 0.00 0.00 0.00 52 1007.9
20260503185403 82 339 1.0 6.0 0.00 0.00 0.00 47 1008.1
20260503184503 81 333 2.0 6.0 0.00 0.00 0.00 47 1008.2
20260503183813 80 360 3.0 6.0 0.00 0.00 0.00 51 1008.3
20260503182704 80 319 2.0 7.0 0.00 0.00 0.00 53 1008.4
20260503181803 79 48 2.0 6.0 0.00 0.00 0.00 54 1008.5
20260503180903 78 11 2.0 7.0 0.00 0.00 0.00 59 1008.6
20260503180214 78 357 2.0 6.0 0.00 0.00 0.00 55 1008.7
20260503175403 77 345 1.0 4.0 0.00 0.00 0.00 60 1008.8
20260503174503 76 345 1.0 4.0 0.00 0.00 0.00 59 1008.8
20260503173813 76 351 1.0 4.0 0.00 0.00 0.00 59 1008.9
20260503172703 75 6 1.0 6.0 0.00 0.00 0.00 62 1008.9
20260503171803 74 335 2.0 7.0 0.00 0.00 0.00 64 1009.0
20260503170903 73 331 1.0 7.0 0.00 0.00 0.00 63 1009.0
20260503150903 56 0 0.0 0.0 0.00 0.00 0.00 97 1009.6
20260503130903 49 0 0.0 0.0 0.00 0.00 0.00 95 1009.1
20260503080903 54 0 0.0 0.0 0.00 0.00 0.00 92 1009.9
20260503072703 55 0 0.0 0.0 0.00 0.00 0.00 92 1009.9
20260503072013 55 0 0.0 0.0 0.00 0.00 0.00 92 1009.9
20260503070903 55 0 0.0 0.0 0.00 0.00 0.00 92 1009.8
20260503054503 58 0 0.0 0.0 0.00 0.00 0.00 89 1010.0
20260503053603 58 0 0.0 0.0 0.00 0.00 0.00 88 1009.8
20260503052703 58 0 0.0 0.0 0.00 0.00 0.00 88 1009.7
20260503051803 58 0 0.0 0.0 0.00 0.00 0.00 87 1009.8
20260503050903 59 0 0.0 0.0 0.00 0.00 0.00 87 1009.9
20260503050003 59 0 0.0 0.0 0.00 0.00 0.00 87 1009.8
20260503045403 59 0 0.0 0.0 0.00 0.00 0.00 86 1010.2
20260503044503 60 0 0.0 0.0 0.00 0.00 0.00 85 1010.0
20260503043603 60 0 0.0 0.0 0.00 0.00 0.00 85 1009.7
20260503042703 60 0 0.0 0.0 0.00 0.00 0.00 85 1009.6
20260503041803 61 0 0.0 0.0 0.00 0.00 0.00 84 1009.7
20260503040903 61 0 0.0 0.0 0.00 0.00 0.00 83 1009.8
20260503040003 62 0 0.0 0.0 0.00 0.00 0.00 82 1010.0
20260503035403 62 0 0.0 0.0 0.00 0.00 0.00 81 1009.9
20260503034503 62 0 0.0 0.0 0.00 0.00 0.00 80 1009.8
20260503033603 63 0 0.0 0.0 0.00 0.00 0.00 80 1009.7
20260503032703 63 75 1.0 3.0 0.00 0.00 0.00 79 1009.5
20260503031803 64 75 1.0 4.0 0.00 0.00 0.00 78 1009.4
20260503030903 64 75 1.0 3.0 0.00 0.00 0.00 78 1009.4
20260503030004 64 93 1.0 4.0 0.00 0.00 0.00 77 1009.2
20260503025403 65 123 2.0 4.0 0.00 0.00 0.00 77 1009.5
20260503024503 65 177 6.0 10.0 0.00 0.00 0.00 76 1009.4
20260503023813 65 183 7.0 15.0 0.00 0.00 0.00 76 1009.5
20260503022703 65 180 8.0 16.0 0.00 0.00 0.00 75 1009.6
20260503021803 65 179 8.0 19.0 0.00 0.00 0.00 75 1009.7
20260503020903 66 177 8.0 18.0 0.00 0.00 0.00 75 1009.8
20260503020214 67 176 6.0 20.0 0.00 0.00 0.00 74 1009.8
20260503015403 68 177 4.0 11.0 0.00 0.00 0.00 71 1009.3
20260503014503 68 175 4.0 9.0 0.00 0.00 0.00 72 1009.0
20260503013603 68 172 4.0 8.0 0.00 0.00 0.00 71 1008.9
20260503012703 69 175 4.0 8.0 0.00 0.00 0.00 70 1008.8
20260503011803 69 173 3.0 8.0 0.00 0.00 0.00 70 1008.9
20260503010903 70 180 1.0 8.0 0.00 0.00 0.00 69 1008.8
20260503010003 70 275 1.0 4.0 0.00 0.00 0.00 70 1008.8
20260503005403 70 284 1.0 4.0 0.00 0.00 0.00 69 1008.7
20260503004503 70 267 1.0 3.0 0.00 0.00 0.00 69 1008.7
20260503003603 70 218 2.0 5.0 0.00 0.00 0.00 69 1008.7
20260503002703 70 244 2.0 8.0 0.00 0.00 0.00 69 1008.8
20260503001803 70 258 3.0 8.0 0.00 0.00 0.00 68 1008.8
20260503000903 70 287 3.0 8.0 0.00 0.00 0.00 68 1008.8
20260503000003 71 268 2.0 7.0 0.00 0.00 0.00 68 1008.9
20260502235613 71 272 2.0 6.0 0.00 0.00 0.00 68 1008.8
20260502234503 71 237 2.0 4.0 0.00 0.00 0.00 65 1008.9
20260502233603 71 256 1.0 4.0 0.00 0.00 0.00 65 1009.1
20260502232703 70 230 2.0 6.0 0.00 0.00 0.00 65 1009.2
20260502231803 70 191 2.0 5.0 0.00 0.00 0.00 66 1009.4
20260502231114 70 222 2.0 4.0 0.00 0.00 0.00 64 1009.4
20260502230003 70 217 2.0 3.0 0.00 0.00 0.00 66 1009.5
20260502225403 70 235 2.0 7.0 0.00 0.00 0.00 64 1009.6
20260502224503 71 325 1.0 8.0 0.00 0.00 0.00 65 1009.8
20260502223814 70 345 1.0 4.0 0.00 0.00 0.00 67 1009.9
20260502222703 69 279 2.0 5.0 0.00 0.00 0.00 67 1010.1
20260502221803 70 350 2.0 5.0 0.00 0.00 0.00 67 1010.3
20260502220903 68 28 2.0 5.0 0.00 0.00 0.00 67 1010.4
20260502220003 67 74 1.0 6.0 0.00 0.00 0.00 69 1010.5
20260502215403 67 78 0.0 6.0 0.00 0.00 0.00 68 1010.6
20260502214714 67 175 2.0 3.0 0.00 0.00 0.00 72 1010.7
20260502213603 66 158 2.0 4.0 0.00 0.00 0.00 69 1010.9
20260502212703 66 132 2.0 6.0 0.00 0.00 0.00 72 1011.0
20260502211803 65 258 2.0 5.0 0.00 0.00 0.00 73 1011.1
20260502210903 64 227 2.0 6.0 0.00 0.00 0.00 73 1011.3
20260502210003 64 314 2.0 5.0 0.00 0.00 0.00 74 1011.5
20260502205614 64 310 2.0 5.0 0.00 0.00 0.00 76 1011.5
20260502204503 62 243 2.0 3.0 0.00 0.00 0.00 74 1011.7
20260502203603 62 209 3.0 5.0 0.00 0.00 0.00 77 1011.9
20260502202703 60 192 2.0 6.0 0.00 0.00 0.00 78 1012.1
20260502201803 61 234 2.0 7.0 0.00 0.00 0.00 79 1012.1
20260502200903 60 164 2.0 7.0 0.00 0.00 0.00 79 1012.2
20260502200003 60 303 2.0 6.0 0.00 0.00 0.00 79 1012.4
20260502195403 59 301 2.0 6.0 0.00 0.00 0.00 82 1012.4
20260502194503 59 333 3.0 7.0 0.00 0.00 0.00 80 1012.4
20260502193814 58 301 2.0 7.0 0.00 0.00 0.00 83 1012.5
20260502192703 57 294 2.0 6.0 0.00 0.00 0.00 87 1012.5
20260502191803 55 193 3.0 9.0 0.00 0.00 0.00 86 1012.9